Regional Weather Roundup
Issued by NWS

Home | Current Version | Previous Version | Graphics & Text | Print | Product List | Glossary On
Versions: 1 2 3 4 5 6 7 8 9 10 11 12 13 14 15 16 17 18 19 20 21 22 23 24 25 26 27 28 29 30 31 32 33 34 35 36 37 38 39 40 41 42 43 44 45 46 47 48 49 50
000
ASUS45 KSLC 291910
RWRUT

UTAH REGIONAL WEATHER ROUNDUP
NATIONAL WEATHER SERVICE SALT LAKE CITY UT
100 PM MDT FRI JUL 29 2016

UTZ001>011-023>025-292000-

NORTHERN UTAH

CITY           SKY/WX    TMP DP  RH WIND       PRES   REMARKS
BRIGHAM CITY     N/A     92  31  11 S5        30.06S
HILL AFB       SUNNY     91  37  15 VRB3      30.09F
LOGAN          SUNNY     90  36  14 CALM      30.07F
OGDEN          SUNNY     94  36  13 VRB5      30.05F
PROVO AIRPORT  MOSUNNY   88  45  22 VRB3      30.07F
SALT LAKE CITY MOSUNNY   97  32  10 N9        30.03F HX  91
VERNAL         SUNNY     88  35  15 VRB6      30.12F
WENDOVER       MOSUNNY   91  36  14 S10       30.06F
HEBER CITY     SUNNY     88  32  13 CALM      30.12F
WEST JORDAN    SUNNY     93  39  15 N8        30.07

$$

UTZ012>022-026-027-292000-

SOUTHERN/CENTRAL UTAH

CITY           SKY/WX    TMP DP  RH WIND       PRES   REMARKS
BLANDING       MOSUNNY   94  35  12 S5        30.22F HX  90
BRYCE CANYON   PTSUNNY   86  27  11 VRB6      30.33F
CEDAR CITY     PTSUNNY   96  37  12 VRB5      30.15F HX  91
DELTA          PTSUNNY   91  34  13 N3        30.08F
MILFORD        CLOUDY    96  35  11 CALM      30.09F HX  91
MOAB/CYNLANDS  SUNNY    100  30   8 SE10      30.01F HX  94
PRICE          MOSUNNY   93  32  11 SW8       30.13F
ST GEORGE      CLEAR     97  48  19 CALM      29.95F HX  93

$$

REGIONAL REPORTS     COLORADO/ARIZONA

CITY           SKY/WX    TMP DP  RH WIND       PRES   REMARKS
CRAIG, CO      SUNNY     86  30  13 N6        30.20F
GRAND JUNCTION SUNNY     94  30  10 VRB6      30.06F
RIFLE          SUNNY     91  30  11 CALM      30.12F
MONTROSE       SUNNY     91  29  11 W9        30.17F
CORTEZ         SUNNY     96  36  12 VRB5G20   30.14F HX  91
PAGE, AZ       SUNNY    101  29   8 N7        30.00F HX  94
GRAND CANYON   MOSUNNY   91  37  15 MISG      30.25F
KINGMAN        MOSUNNY   99  51  19 SW14G21   30.00F HX  96
FLAGSTAFF      MOSUNNY   86  42  21 SW9       30.27F

$$

REGIONAL REPORTS    NEVADA/IDAHO/WYOMING

CITY           SKY/WX    TMP DP  RH WIND       PRES   REMARKS
LAS VEGAS, NV  PTSUNNY  105  43  12 CALM      29.82F HX 100
ELY            MOSUNNY   93  38  14 NW8G17    30.19F
ELKO           SUNNY     94  31  10 N3        30.10F
POCATELLO, ID  SUNNY     88  39  17 NW6       30.08F
BURLEY         SUNNY     87  43  21 W9        30.05F HAZE
EVANSTON, WY   MOSUNNY   87  30  13 SW15G26   30.26F
ROCK SPRINGS   SUNNY     85  31  14 W13G23    30.22F
KEMMERER         N/A    N/A N/A N/A W20G31    30.26F

$$



USA.gov is the U.S. government's official web portal to all federal, state and local government web resources and services.